| time (UTC) | temp C | wind direction | speed KPH | gust KPH | rain 1hr cm | rain 24hr cm | rain mn cm | humidity % | barometer mb |
| 20260505153024 | 7 | 71 | 3.2 | 22.5 | 0.00 | 0.00 | 0.00 | 74 | 1005.1 |
| 20260505152503 | 7 | 84 | 4.8 | 22.5 | 0.00 | 0.00 | 0.00 | 74 | 1005.2 |
| 20260505152003 | 7 | 89 | 4.8 | 17.7 | 0.00 | 0.00 | 0.00 | 73 | 1005.2 |
| 20260505151502 | 7 | 74 | 3.2 | 17.7 | 0.00 | 0.00 | 0.00 | 73 | 1005.3 |
| 20260505151003 | 7 | 84 | 3.2 | 17.7 | 0.00 | 0.00 | 0.00 | 72 | 1005.2 |
| 20260505150503 | 7 | 99 | 4.8 | 17.7 | 0.00 | 0.00 | 0.00 | 72 | 1005.2 |
| 20260505140503 | 8 | 97 | 3.2 | 12.9 | 0.00 | 0.00 | 0.00 | 67 | 1004.7 |
| 20260505125003 | 8 | 121 | 1.6 | 8.0 | 0.00 | 0.00 | 0.00 | 70 | 1003.7 |
| 20260505124524 | 8 | 59 | 1.6 | 8.0 | 0.00 | 0.00 | 0.00 | 70 | 1003.4 |
| 20260505124003 | 8 | 98 | 3.2 | 8.0 | 0.00 | 0.00 | 0.00 | 71 | 1003.4 |
| 20260505123524 | 8 | 98 | 0.0 | 3.2 | 0.00 | 0.00 | 0.00 | 72 | 1003.1 |
| 20260505122502 | 8 | 90 | 1.6 | 4.8 | 0.00 | 0.00 | 0.00 | 72 | 1003.2 |
| 20260505122024 | 8 | 96 | 1.6 | 4.8 | 0.00 | 0.00 | 0.00 | 72 | 1003.1 |
| 20260505121524 | 8 | 84 | 1.6 | 4.8 | 0.00 | 0.00 | 0.00 | 71 | 1003.0 |
| 20260505121002 | 8 | 87 | 1.6 | 4.8 | 0.00 | 0.00 | 0.00 | 71 | 1002.7 |
| 20260505120503 | 8 | 92 | 1.6 | 4.8 | 0.00 | 0.00 | 0.00 | 70 | 1002.7 |
| 20260505120004 | 8 | 90 | 1.6 | 4.8 | 0.00 | 0.00 | 0.00 | 69 | 1002.5 |
| 20260505115503 | 8 | 92 | 0.0 | 3.2 | 0.00 | 0.00 | 0.00 | 69 | 1002.6 |
| 20260505115003 | 8 | 92 | 0.0 | 3.2 | 0.00 | 0.00 | 0.00 | 69 | 1002.3 |
| 20260505114503 | 8 | 93 | 1.6 | 3.2 | 0.00 | 0.00 | 0.00 | 68 | 1002.4 |
| 20260505114003 | 8 | 93 | 1.6 | 3.2 | 0.00 | 0.00 | 0.00 | 68 | 1002.2 |
| 20260505113503 | 8 | 92 | 1.6 | 3.2 | 0.00 | 0.00 | 0.00 | 68 | 1002.4 |
| 20260505113045 | 8 | 91 | 0.0 | 4.8 | 0.00 | 0.00 | 0.00 | 69 | 1002.4 |
| 20260505112503 | 8 | 91 | 0.0 | 4.8 | 0.00 | 0.00 | 0.00 | 69 | 1002.3 |
| 20260505112024 | 8 | 72 | 1.6 | 3.2 | 0.00 | 0.00 | 0.00 | 70 | 1002.0 |
| 20260505111524 | 7 | 60 | 0.0 | 3.2 | 0.00 | 0.00 | 0.00 | 71 | 1002.0 |
| 20260505111003 | 7 | 55 | 1.6 | 3.2 | 0.00 | 0.00 | 0.00 | 71 | 1001.9 |
| 20260505110502 | 7 | 53 | 1.6 | 3.2 | 0.00 | 0.00 | 0.00 | 71 | 1001.9 |
| 20260505102002 | 8 | 28 | 0.0 | 3.2 | 0.00 | 0.00 | 0.00 | 68 | 1002.4 |
| 20260505101503 | 8 | 28 | 0.0 | 1.6 | 0.00 | 0.00 | 0.00 | 68 | 1002.3 |
| 20260505101002 | 8 | 28 | 0.0 | 1.6 | 0.00 | 0.00 | 0.00 | 68 | 1002.4 |
| 20260505100503 | 9 | 28 | 0.0 | 0.0 | 0.00 | 0.00 | 0.00 | 68 | 1002.4 |
| 20260505100023 | 9 | 28 | 0.0 | 0.0 | 0.00 | 0.00 | 0.00 | 68 | 1002.3 |
| 20260505095503 | 9 | 28 | 0.0 | 0.0 | 0.00 | 0.00 | 0.00 | 68 | 1002.2 |
| 20260505095002 | 9 | 28 | 0.0 | 0.0 | 0.00 | 0.00 | 0.00 | 67 | 1002.2 |
| 20260505094503 | 9 | 28 | 0.0 | 0.0 | 0.00 | 0.00 | 0.00 | 67 | 1002.2 |
| 20260505094003 | 10 | 28 | 0.0 | 0.0 | 0.00 | 0.00 | 0.00 | 67 | 1002.4 |
| 20260505093503 | 10 | 28 | 0.0 | 0.0 | 0.00 | 0.00 | 0.00 | 67 | 1002.5 |
| 20260505093003 | 10 | 28 | 0.0 | 0.0 | 0.00 | 0.00 | 0.00 | 67 | 1002.5 |
| 20260505092503 | 10 | 28 | 0.0 | 0.0 | 0.00 | 0.00 | 0.00 | 66 | 1002.4 |
| 20260505092003 | 10 | 28 | 0.0 | 0.0 | 0.00 | 0.00 | 0.00 | 66 | 1002.3 |
| 20260505091502 | 10 | 28 | 0.0 | 0.0 | 0.00 | 0.00 | 0.00 | 66 | 1002.4 |
| 20260505091003 | 10 | 28 | 0.0 | 0.0 | 0.00 | 0.00 | 0.00 | 66 | 1002.4 |
| 20260505090503 | 10 | 28 | 0.0 | 0.0 | 0.00 | 0.00 | 0.00 | 66 | 1002.2 |
| 20260505090002 | 10 | 28 | 0.0 | 0.0 | 0.00 | 0.00 | 0.00 | 65 | 1002.3 |
| 20260505085503 | 10 | 28 | 0.0 | 0.0 | 0.00 | 0.00 | 0.00 | 65 | 1002.3 |
| 20260505085003 | 11 | 28 | 0.0 | 0.0 | 0.00 | 0.00 | 0.00 | 65 | 1002.4 |
| 20260505084503 | 11 | 28 | 0.0 | 0.0 | 0.00 | 0.00 | 0.00 | 65 | 1002.3 |
| 20260505084003 | 11 | 28 | 0.0 | 0.0 | 0.00 | 0.00 | 0.00 | 65 | 1002.3 |
| 20260505083503 | 11 | 28 | 0.0 | 1.6 | 0.00 | 0.00 | 0.00 | 65 | 1002.4 |
| 20260505082503 | 11 | 27 | 0.0 | 1.6 | 0.00 | 0.00 | 0.00 | 63 | 1002.2 |
| 20260505082003 | 11 | 28 | 0.0 | 4.8 | 0.00 | 0.00 | 0.00 | 63 | 1002.4 |
| 20260505081524 | 11 | 28 | 0.0 | 4.8 | 0.00 | 0.00 | 0.00 | 63 | 1002.4 |
| 20260505081003 | 11 | 29 | 0.0 | 4.8 | 0.00 | 0.00 | 0.00 | 62 | 1002.3 |
| 20260505080503 | 11 | 30 | 0.0 | 3.2 | 0.00 | 0.00 | 0.00 | 62 | 1002.4 |
| 20260505080002 | 11 | 29 | 0.0 | 3.2 | 0.00 | 0.00 | 0.00 | 62 | 1002.3 |
| 20260505075503 | 11 | 29 | 1.6 | 3.2 | 0.00 | 0.00 | 0.00 | 62 | 1002.2 |
| 20260505075002 | 11 | 29 | 0.0 | 4.8 | 0.00 | 0.00 | 0.00 | 62 | 1002.3 |
| 20260505074524 | 12 | 30 | 0.0 | 6.4 | 0.00 | 0.00 | 0.00 | 62 | 1002.3 |
| 20260505074003 | 12 | 30 | 0.0 | 6.4 | 0.00 | 0.00 | 0.00 | 62 | 1002.3 |
| 20260505073503 | 12 | 32 | 1.6 | 3.2 | 0.00 | 0.00 | 0.00 | 62 | 1002.3 |
| 20260505073003 | 12 | 32 | 0.0 | 3.2 | 0.00 | 0.00 | 0.00 | 61 | 1002.5 |
| 20260505072524 | 12 | 32 | 1.6 | 3.2 | 0.00 | 0.00 | 0.00 | 61 | 1002.5 |
| 20260505072003 | 12 | 32 | 0.0 | 0.0 | 0.00 | 0.00 | 0.00 | 61 | 1002.3 |
| 20260505071523 | 12 | 32 | 0.0 | 6.4 | 0.00 | 0.00 | 0.00 | 60 | 1002.0 |
| 20260505071024 | 12 | 32 | 0.0 | 6.4 | 0.00 | 0.00 | 0.00 | 60 | 1001.9 |
| 20260505070524 | 12 | 32 | 3.2 | 8.0 | 0.00 | 0.00 | 0.00 | 60 | 1001.9 |
| 20260505070002 | 12 | 28 | 1.6 | 9.7 | 0.00 | 0.00 | 0.00 | 59 | 1001.8 |
| 20260505065503 | 12 | 23 | 4.8 | 12.9 | 0.00 | 0.00 | 0.00 | 59 | 1001.5 |
| 20260505065003 | 12 | 24 | 3.2 | 19.3 | 0.00 | 0.00 | 0.00 | 58 | 1001.5 |
| 20260505064502 | 12 | 21 | 9.7 | 19.3 | 0.00 | 0.00 | 0.00 | 58 | 1001.4 |
| 20260505064003 | 12 | 22 | 11.3 | 17.7 | 0.00 | 0.00 | 0.00 | 58 | 1001.2 |
| 20260505063503 | 12 | 24 | 3.2 | 17.7 | 0.00 | 0.00 | 0.00 | 58 | 1001.1 |
| 20260505063024 | 12 | 35 | 4.8 | 14.5 | 0.00 | 0.00 | 0.00 | 58 | 1001.4 |
| 20260505062502 | 12 | 26 | 3.2 | 24.1 | 0.00 | 0.00 | 0.00 | 57 | 1001.9 |
| 20260505062003 | 12 | 24 | 8.0 | 24.1 | 0.00 | 0.00 | 0.00 | 58 | 1001.7 |
| 20260505061502 | 12 | 21 | 16.1 | 24.1 | 0.00 | 0.00 | 0.00 | 58 | 1001.4 |
| 20260505061003 | 13 | 18 | 6.4 | 16.1 | 0.00 | 0.00 | 0.00 | 57 | 1001.4 |
| 20260505060503 | 13 | 18 | 8.0 | 24.1 | 0.00 | 0.00 | 0.00 | 57 | 1001.7 |
| 20260505060023 | 13 | 13 | 14.5 | 33.8 | 0.00 | 0.00 | 0.00 | 55 | 1001.7 |
| 20260505055503 | 13 | 16 | 17.7 | 33.8 | 0.00 | 0.00 | 0.00 | 55 | 1001.6 |
| 20260505055003 | 13 | 27 | 6.4 | 17.7 | 0.00 | 0.00 | 0.00 | 55 | 1001.5 |
| 20260505054503 | 13 | 20 | 9.7 | 20.9 | 0.00 | 0.00 | 0.00 | 55 | 1001.6 |
| 20260505054003 | 13 | 13 | 11.3 | 20.9 | 0.00 | 0.00 | 0.00 | 55 | 1001.6 |
| 20260505053523 | 13 | 23 | 8.0 | 19.3 | 0.00 | 0.00 | 0.00 | 55 | 1001.6 |
| 20260505053003 | 13 | 21 | 11.3 | 17.7 | 0.00 | 0.00 | 0.00 | 55 | 1001.4 |
| 20260505052502 | 13 | 14 | 8.0 | 22.5 | 0.00 | 0.00 | 0.00 | 55 | 1001.3 |
| 20260505052024 | 13 | 13 | 14.5 | 22.5 | 0.00 | 0.00 | 0.00 | 54 | 1001.2 |
| 20260505051502 | 13 | 28 | 6.4 | 16.1 | 0.00 | 0.00 | 0.00 | 55 | 1001.3 |
| 20260505051003 | 13 | 22 | 6.4 | 19.3 | 0.00 | 0.00 | 0.00 | 56 | 1001.3 |
| 20260505050502 | 13 | 15 | 8.0 | 19.3 | 0.00 | 0.00 | 0.00 | 55 | 1001.4 |
| 20260505041024 | 13 | 20 | 6.4 | 35.4 | 0.00 | 0.00 | 0.00 | 54 | 1000.8 |
| 20260505040503 | 13 | 23 | 16.1 | 37.0 | 0.00 | 0.00 | 0.00 | 53 | 1000.5 |
| 20260505035524 | 14 | 12 | 24.1 | 41.8 | 0.00 | 0.00 | 0.00 | 52 | 1000.3 |
| 20260505035002 | 14 | 26 | 4.8 | 37.0 | 0.00 | 0.00 | 0.00 | 52 | 1000.3 |
| 20260505034503 | 13 | 19 | 3.2 | 46.7 | 0.00 | 0.00 | 0.00 | 52 | 1000.0 |
| 20260505034003 | 13 | 15 | 22.5 | 46.7 | 0.00 | 0.00 | 0.00 | 53 | 999.9 |
| 20260505033502 | 13 | 20 | 19.3 | 37.0 | 0.00 | 0.00 | 0.00 | 54 | 999.7 |
| 20260505033003 | 13 | 16 | 19.3 | 37.0 | 0.00 | 0.00 | 0.00 | 55 | 999.3 |
| 20260505032502 | 13 | 8 | 11.3 | 46.7 | 0.00 | 0.00 | 0.00 | 55 | 999.1 |
| 20260505032003 | 13 | 13 | 25.7 | 46.7 | 0.00 | 0.00 | 0.00 | 54 | 998.7 |
| 20260505031502 | 13 | 11 | 27.4 | 45.1 | 0.00 | 0.00 | 0.00 | 55 | 998.4 |
| 20260505031024 | 13 | 12 | 27.4 | 45.1 | 0.00 | 0.00 | 0.00 | 55 | 998.5 |
| 20260505030502 | 13 | 18 | 19.3 | 45.1 | 0.00 | 0.00 | 0.00 | 55 | 998.5 |
| 20260505030003 | 13 | 17 | 25.7 | 51.5 | 0.00 | 0.00 | 0.00 | 54 | 998.5 |
| 20260505025503 | 13 | 12 | 30.6 | 51.5 | 0.00 | 0.00 | 0.00 | 55 | 998.2 |
| 20260505025003 | 13 | 20 | 33.8 | 48.3 | 0.00 | 0.00 | 0.00 | 55 | 998.0 |
| 20260505024524 | 13 | 13 | 32.2 | 48.3 | 0.00 | 0.00 | 0.00 | 56 | 998.2 |
| 20260505024002 | 14 | 14 | 32.2 | 48.3 | 0.00 | 0.00 | 0.00 | 53 | 998.1 |
| 20260505023503 | 15 | 16 | 33.8 | 48.3 | 0.00 | 0.00 | 0.00 | 50 | 997.9 |
| 20260505023003 | 15 | 19 | 29.0 | 54.7 | 0.00 | 0.00 | 0.00 | 49 | 997.7 |
| 20260505022503 | 15 | 17 | 37.0 | 54.7 | 0.00 | 0.00 | 0.00 | 49 | 997.2 |
| 20260505022002 | 15 | 16 | 38.6 | 53.1 | 0.00 | 0.00 | 0.00 | 50 | 996.8 |
| 20260505021524 | 15 | 12 | 38.6 | 53.1 | 0.00 | 0.00 | 0.00 | 50 | 996.9 |
| 20260505021003 | 15 | 11 | 30.6 | 45.1 | 0.00 | 0.00 | 0.00 | 52 | 996.8 |
| 20260505020503 | 15 | 17 | 29.0 | 45.1 | 0.00 | 0.00 | 0.00 | 52 | 996.9 |
| 20260505020045 | 15 | 14 | 29.0 | 45.1 | 0.00 | 0.00 | 0.00 | 51 | 997.0 |
| 20260505015503 | 15 | 19 | 24.1 | 51.5 | 0.00 | 0.00 | 0.00 | 50 | 997.2 |
| 20260505015002 | 16 | 13 | 29.0 | 51.5 | 0.00 | 0.00 | 0.00 | 47 | 996.8 |
| 20260505014503 | 17 | 15 | 33.8 | 51.5 | 0.00 | 0.00 | 0.00 | 42 | 996.6 |
| 20260505014003 | 17 | 17 | 32.2 | 46.7 | 0.00 | 0.00 | 0.00 | 40 | 996.2 |
| 20260505013503 | 18 | 18 | 29.0 | 49.9 | 0.00 | 0.00 | 0.00 | 39 | 996.3 |
| 20260505013002 | 18 | 17 | 30.6 | 49.9 | 0.00 | 0.00 | 0.00 | 33 | 995.9 |
| 20260505012503 | 18 | 23 | 27.4 | 43.5 | 0.00 | 0.00 | 0.00 | 33 | 995.8 |
| 20260505012002 | 18 | 17 | 22.5 | 38.6 | 0.00 | 0.00 | 0.00 | 33 | 996.0 |
| 20260505011503 | 18 | 12 | 27.4 | 38.6 | 0.00 | 0.00 | 0.00 | 33 | 995.9 |
| 20260505011003 | 18 | 28 | 19.3 | 33.8 | 0.00 | 0.00 | 0.00 | 33 | 995.9 |
| 20260505010503 | 19 | 19 | 17.7 | 29.0 | 0.00 | 0.00 | 0.00 | 32 | 995.8 |
| 20260505010004 | 19 | 22 | 17.7 | 35.4 | 0.00 | 0.00 | 0.00 | 31 | 995.7 |
| 20260505005523 | 20 | 28 | 20.9 | 35.4 | 0.00 | 0.00 | 0.00 | 30 | 995.5 |
| 20260505005003 | 20 | 25 | 20.9 | 32.2 | 0.00 | 0.00 | 0.00 | 28 | 995.5 |
| 20260505004502 | 20 | 27 | 12.9 | 24.1 | 0.00 | 0.00 | 0.00 | 27 | 995.6 |
| 20260505004003 | 20 | 18 | 17.7 | 27.4 | 0.00 | 0.00 | 0.00 | 27 | 995.6 |
| 20260505003502 | 20 | 25 | 12.9 | 27.4 | 0.00 | 0.00 | 0.00 | 27 | 995.4 |
| 20260505003003 | 20 | 21 | 14.5 | 30.6 | 0.00 | 0.00 | 0.00 | 27 | 995.5 |
| 20260505002503 | 21 | 18 | 14.5 | 30.6 | 0.00 | 0.00 | 0.00 | 26 | 995.4 |
| 20260505002003 | 21 | 27 | 12.9 | 29.0 | 0.00 | 0.00 | 0.00 | 26 | 995.4 |
| 20260505001503 | 21 | 42 | 9.7 | 29.0 | 0.00 | 0.00 | 0.00 | 25 | 995.7 |
| 20260505001002 | 21 | 21 | 19.3 | 27.4 | 0.00 | 0.00 | 0.00 | 25 | 995.5 |
| 20260505000503 | 21 | 31 | 12.9 | 27.4 | 0.00 | 0.00 | 0.00 | 25 | 995.5 |
| 20260505000003 | 22 | 22 | 6.4 | 17.7 | 0.00 | 0.00 | 0.00 | 24 | 995.6 |
| 20260504235502 | 22 | 19 | 4.8 | 17.7 | 0.00 | 0.00 | 0.00 | 23 | 995.8 |
| 20260504235003 | 23 | 6 | 8.0 | 19.3 | 0.00 | 0.00 | 0.00 | 22 | 995.7 |
| 20260504234523 | 23 | 282 | 9.7 | 25.7 | 0.00 | 0.00 | 0.00 | 19 | 995.6 |
| 20260504234003 | 23 | 265 | 14.5 | 25.7 | 0.00 | 0.00 | 0.00 | 19 | 995.5 |
| 20260504233503 | 23 | 266 | 14.5 | 25.7 | 0.00 | 0.00 | 0.00 | 19 | 995.5 |
| 20260504233003 | 23 | 259 | 17.7 | 29.0 | 0.00 | 0.00 | 0.00 | 19 | 995.6 |
| 20260504232503 | 23 | 260 | 20.9 | 29.0 | 0.00 | 0.00 | 0.00 | 19 | 995.6 |
| 20260504232002 | 23 | 260 | 20.9 | 29.0 | 0.00 | 0.00 | 0.00 | 18 | 995.4 |
| 20260504231503 | 23 | 260 | 14.5 | 32.2 | 0.00 | 0.00 | 0.00 | 19 | 995.5 |
| 20260504231002 | 23 | 253 | 19.3 | 32.2 | 0.00 | 0.00 | 0.00 | 19 | 995.3 |
| 20260504230503 | 23 | 249 | 22.5 | 33.8 | 0.00 | 0.00 | 0.00 | 19 | 995.2 |
| 20260504230024 | 23 | 247 | 17.7 | 33.8 | 0.00 | 0.00 | 0.00 | 19 | 995.3 |
| 20260504225503 | 23 | 261 | 17.7 | 35.4 | 0.00 | 0.00 | 0.00 | 19 | 995.2 |
| 20260504225002 | 23 | 250 | 25.7 | 35.4 | 0.00 | 0.00 | 0.00 | 18 | 995.2 |
| 20260504224545 | 23 | 245 | 25.7 | 41.8 | 0.00 | 0.00 | 0.00 | 18 | 995.2 |
| 20260504224002 | 23 | 243 | 24.1 | 41.8 | 0.00 | 0.00 | 0.00 | 18 | 995.3 |
| 20260504223503 | 23 | 263 | 16.1 | 33.8 | 0.00 | 0.00 | 0.00 | 18 | 995.2 |
| 20260504223002 | 23 | 251 | 19.3 | 37.0 | 0.00 | 0.00 | 0.00 | 18 | 995.2 |
| 20260504222503 | 23 | 249 | 24.1 | 37.0 | 0.00 | 0.00 | 0.00 | 18 | 995.2 |
| 20260504222003 | 23 | 250 | 27.4 | 46.7 | 0.00 | 0.00 | 0.00 | 18 | 995.2 |
| 20260504221503 | 23 | 261 | 29.0 | 46.7 | 0.00 | 0.00 | 0.00 | 18 | 995.3 |
| 20260504221002 | 23 | 253 | 32.2 | 43.5 | 0.00 | 0.00 | 0.00 | 18 | 995.3 |
| 20260504220545 | 24 | 237 | 29.0 | 51.5 | 0.00 | 0.00 | 0.00 | 18 | 995.4 |
| 20260504220002 | 24 | 244 | 30.6 | 51.5 | 0.00 | 0.00 | 0.00 | 18 | 995.6 |
| 20260504215503 | 24 | 252 | 27.4 | 43.5 | 0.00 | 0.00 | 0.00 | 18 | 995.7 |
| 20260504215002 | 24 | 252 | 20.9 | 41.8 | 0.00 | 0.00 | 0.00 | 18 | 995.7 |
| 20260504214503 | 24 | 232 | 22.5 | 41.8 | 0.00 | 0.00 | 0.00 | 18 | 995.7 |
| 20260504214003 | 24 | 243 | 25.7 | 45.1 | 0.00 | 0.00 | 0.00 | 18 | 996.0 |
| 20260504213503 | 23 | 230 | 30.6 | 45.1 | 0.00 | 0.00 | 0.00 | 19 | 996.0 |
| 20260504213002 | 23 | 241 | 25.7 | 46.7 | 0.00 | 0.00 | 0.00 | 19 | 996.0 |
| 20260504212503 | 23 | 258 | 29.0 | 46.7 | 0.00 | 0.00 | 0.00 | 19 | 996.3 |
| 20260504212002 | 24 | 232 | 29.0 | 45.1 | 0.00 | 0.00 | 0.00 | 20 | 996.3 |
| 20260504211002 | 24 | 228 | 29.0 | 43.5 | 0.00 | 0.00 | 0.00 | 20 | 996.2 |
| 20260504210503 | 23 | 239 | 33.8 | 48.3 | 0.00 | 0.00 | 0.00 | 21 | 996.4 |
| 20260504210023 | 23 | 254 | 27.4 | 51.5 | 0.00 | 0.00 | 0.00 | 20 | 996.4 |
| 20260504205503 | 23 | 242 | 41.8 | 57.9 | 0.00 | 0.00 | 0.00 | 19 | 996.5 |
| 20260504205002 | 24 | 246 | 37.0 | 57.9 | 0.00 | 0.00 | 0.00 | 21 | 996.5 |
| 20260504204503 | 24 | 235 | 30.6 | 56.3 | 0.00 | 0.00 | 0.00 | 22 | 996.5 |
| 20260504204002 | 23 | 250 | 32.2 | 56.3 | 0.00 | 0.00 | 0.00 | 21 | 996.7 |
| 20260504203503 | 23 | 260 | 29.0 | 53.1 | 0.00 | 0.00 | 0.00 | 20 | 996.8 |
| 20260504203003 | 23 | 260 | 40.2 | 53.1 | 0.00 | 0.00 | 0.00 | 20 | 996.7 |
| 20260504202503 | 24 | 257 | 38.6 | 54.7 | 0.00 | 0.00 | 0.00 | 19 | 996.8 |
| 20260504202003 | 24 | 236 | 38.6 | 61.2 | 0.00 | 0.00 | 0.00 | 19 | 996.8 |
| 20260504201503 | 24 | 249 | 37.0 | 61.2 | 0.00 | 0.00 | 0.00 | 19 | 996.9 |
| 20260504201003 | 24 | 250 | 45.1 | 56.3 | 0.00 | 0.00 | 0.00 | 20 | 996.8 |
| 20260504200523 | 24 | 241 | 38.6 | 54.7 | 0.00 | 0.00 | 0.00 | 20 | 996.9 |
| 20260504200003 | 25 | 249 | 40.2 | 54.7 | 0.00 | 0.00 | 0.00 | 21 | 996.9 |
| 20260504195502 | 24 | 235 | 30.6 | 51.5 | 0.00 | 0.00 | 0.00 | 21 | 996.7 |
| 20260504195003 | 25 | 247 | 40.2 | 54.7 | 0.00 | 0.00 | 0.00 | 20 | 996.8 |
| 20260504194503 | 25 | 256 | 37.0 | 54.7 | 0.00 | 0.00 | 0.00 | 19 | 996.9 |
| 20260504194003 | 25 | 256 | 29.0 | 41.8 | 0.00 | 0.00 | 0.00 | 17 | 996.9 |
| 20260504193503 | 25 | 253 | 12.9 | 25.7 | 0.00 | 0.00 | 0.00 | 17 | 996.8 |
| 20260504193002 | 25 | 285 | 14.5 | 40.2 | 0.00 | 0.00 | 0.00 | 16 | 997.1 |
| 20260504192503 | 25 | 263 | 22.5 | 40.2 | 0.00 | 0.00 | 0.00 | 16 | 997.3 |
| 20260504192002 | 25 | 281 | 12.9 | 25.7 | 0.00 | 0.00 | 0.00 | 16 | 997.3 |
| 20260504191524 | 25 | 270 | 8.0 | 16.1 | 0.00 | 0.00 | 0.00 | 17 | 997.2 |
| 20260504191003 | 25 | 332 | 6.4 | 29.0 | 0.00 | 0.00 | 0.00 | 16 | 997.3 |
| 20260504190503 | 25 | 248 | 16.1 | 35.4 | 0.00 | 0.00 | 0.00 | 16 | 997.3 |
| 20260504190024 | 25 | 253 | 27.4 | 37.0 | 0.00 | 0.00 | 0.00 | 16 | 997.3 |
| 20260504185503 | 25 | 268 | 11.3 | 37.0 | 0.00 | 0.00 | 0.00 | 16 | 997.4 |
| 20260504184503 | 24 | 252 | 17.7 | 35.4 | 0.00 | 0.00 | 0.00 | 17 | 997.6 |
| 20260504184002 | 24 | 254 | 17.7 | 30.6 | 0.00 | 0.00 | 0.00 | 16 | 997.7 |
| 20260504183503 | 24 | 260 | 19.3 | 32.2 | 0.00 | 0.00 | 0.00 | 16 | 997.7 |
| 20260504183002 | 23 | 273 | 17.7 | 37.0 | 0.00 | 0.00 | 0.00 | 16 | 997.8 |
| 20260504182503 | 23 | 258 | 24.1 | 37.0 | 0.00 | 0.00 | 0.00 | 16 | 997.8 |
| 20260504182002 | 23 | 251 | 24.1 | 33.8 | 0.00 | 0.00 | 0.00 | 16 | 997.9 |
| 20260504181524 | 24 | 271 | 8.0 | 29.0 | 0.00 | 0.00 | 0.00 | 16 | 998.1 |
| 20260504181002 | 24 | 306 | 16.1 | 32.2 | 0.00 | 0.00 | 0.00 | 16 | 998.2 |
| 20260504180524 | 24 | 287 | 17.7 | 43.5 | 0.00 | 0.00 | 0.00 | 16 | 998.1 |
| 20260504180002 | 24 | 259 | 17.7 | 43.5 | 0.00 | 0.00 | 0.00 | 17 | 998.2 |
| 20260504175545 | 23 | 298 | 8.0 | 40.2 | 0.00 | 0.00 | 0.00 | 17 | 998.2 |
| 20260504175024 | 23 | 263 | 20.9 | 40.2 | 0.00 | 0.00 | 0.00 | 17 | 998.3 |
| 20260504174502 | 23 | 265 | 22.5 | 40.2 | 0.00 | 0.00 | 0.00 | 18 | 998.3 |
| 20260504174003 | 23 | 255 | 8.0 | 30.6 | 0.00 | 0.00 | 0.00 | 19 | 998.4 |
| 20260504173503 | 23 | 283 | 16.1 | 30.6 | 0.00 | 0.00 | 0.00 | 19 | 998.6 |
| 20260504173003 | 23 | 262 | 14.5 | 29.0 | 0.00 | 0.00 | 0.00 | 21 | 998.6 |
| 20260504172502 | 23 | 244 | 9.7 | 32.2 | 0.00 | 0.00 | 0.00 | 22 | 998.7 |
| 20260504172003 | 23 | 248 | 20.9 | 32.2 | 0.00 | 0.00 | 0.00 | 23 | 998.8 |
| 20260504171503 | 22 | 269 | 11.3 | 32.2 | 0.00 | 0.00 | 0.00 | 23 | 999.0 |
| 20260504171003 | 22 | 272 | 16.1 | 32.2 | 0.00 | 0.00 | 0.00 | 22 | 999.3 |
| 20260504170503 | 22 | 296 | 12.9 | 40.2 | 0.00 | 0.00 | 0.00 | 22 | 999.3 |